Home   Weather   Lansing   Past weeks

Flag for USA Past Weather in Lansing, Michigan, USA — Yesterday and Last 2 Weeks

Now
76 °F

Sunny.


Feels Like: 78 °F
Forecast: 57 / 85 °F
Wind: 5 mph from South

Location: Capital City Airport

Current Time: Aug 20, 2017 at 11:30:44 am

Latest Report: Aug 20, 2017 at 10:53 am


Visibility: 10 mi

Pressure: 30.08 "Hg

Humidity: 50%

Dew Point: 56 °F

Location of LansingLocation

Past Weather in Lansing — Graph

°F

Lansing Temperature Yesterday

Maximum temperature yesterday: 79 °F (at 3:53 pm)
Minimum temperature yesterday: 62 °F (at 1:53 am)
Average temperature yesterday: 70 °F

High & Low Weather Summary for the Past Weeks

 TemperatureHumidityPressure
High84 °F (Aug 16, 4:53 pm)97% (Aug 15, 4:40 am)30.20 "Hg (Aug 15, 4:40 am)
Low53 °F (Aug 8, 1:53 am)33% (Aug 9, 2:53 pm)29.67 "Hg (Aug 18, 2:53 am)
Average69 °F70%29.98 "Hg
* Reported Aug 5 9:53 am — Aug 20 9:53 am, Lansing. Weather by CustomWeather, © 2017

Note: Actual official high and low records may vary slightly from our data, if they occured in-between our weather recording intervals... More about our weather records

Advertising

Lansing Weather History for the Previous 24 Hours

Scroll right to see more
 ConditionsComfort  
Time TempWeatherWind HumidityBarometerVisibility
9:53 am
Sun, Aug 20
72 °FSunny.7 mph64%30.08 "Hg10 mi
8:53 am66 °FSunny.3 mph78%30.08 "Hg10 mi
7:53 am60 °FSunny.No wind90%30.07 "Hg8 mi
6:53 am58 °FSunny.No wind90%30.06 "Hg7 mi
5:53 am59 °FClear.No wind90%30.03 "Hg8 mi
4:53 am59 °FClear.3 mph90%30.03 "Hg8 mi
3:53 am60 °FClear.No wind90%30.03 "Hg9 mi
2:53 am60 °FClear.No wind90%30.02 "Hg9 mi
1:53 am61 °FClear.No wind87%30.02 "Hg10 mi
12:53 am62 °FClear.No wind86%30.02 "Hg10 mi
11:53 pm
Sat, Aug 19
65 °FClear.No wind78%30.00 "Hg10 mi
10:53 pm68 °FClear.6 mph73%29.98 "Hg10 mi
9:53 pm70 °FClear.8 mph68%29.97 "Hg10 mi
8:53 pm72 °FClear.7 mph64%29.95 "Hg10 mi
7:53 pm75 °FSunny.8 mph54%29.94 "Hg10 mi
6:53 pm78 °FSunny.10 mph46%29.93 "Hg10 mi
5:53 pm79 °FPassing clouds.8 mph45%29.93 "Hg10 mi
4:53 pm79 °FPassing clouds.10 mph44%29.94 "Hg10 mi
3:53 pm79 °FScattered clouds.9 mph45%29.93 "Hg10 mi
2:53 pm78 °FScattered clouds.6 mph43%29.94 "Hg10 mi
1:53 pm76 °FScattered clouds.5 mph48%29.94 "Hg10 mi
12:53 pm74 °FPassing clouds.6 mph52%29.93 "Hg10 mi
11:53 am72 °FScattered clouds.12 mph57%29.95 "Hg10 mi
Weather by CustomWeather, © 2017

See weather overviewHow to use our weather pages